FW9638 Weather Reports


time (UTC)temp
C
wind
direction
speed
KPH
gust
KPH
rain 1hr
cm
rain 24hr
cm
rain mn
cm
humidity
%
barometer
mb
20260510115538 21 0.0 0.0 0.00 0.03 0.03 50 1032.1
20260510114641 21 256 0.0 1.6 0.00 0.03 0.03 50 1032.2
20260510113619 21 256 0.0 1.6 0.00 0.03 0.03 51 1032.0
20260510112532 21 258 1.6 4.8 0.00 0.03 0.03 51 1032.0
20260510111530 21 255 0.0 3.2 0.00 0.03 0.03 51 1031.9
20260510110548 21 262 0.0 3.2 0.00 0.03 0.03 51 1031.8
20260510105527 21 250 3.2 11.3 0.00 0.03 0.03 51 1031.8
20260510104524 21 252 1.6 9.7 0.00 0.03 0.03 51 1031.8
20260510103523 21 264 1.6 6.4 0.00 0.03 0.03 51 1031.9
20260510102541 21 259 1.6 11.3 0.00 0.03 0.03 51 1031.8
20260510101519 21 250 1.6 4.8 0.00 0.03 0.03 51 1031.8
20260510100522 21 250 3.2 11.3 0.00 0.03 0.03 51 1031.7
20260510095540 21 257 0.0 4.8 0.00 0.03 0.03 51 1031.7
20260510094533 21 257 1.6 6.4 0.00 0.03 0.03 51 1031.6
20260510093532 21 257 0.0 3.2 0.00 0.03 0.03 51 1031.5
20260510092530 21 0.0 0.0 0.00 0.03 0.03 51 1031.4
20260510091528 21 274 0.0 4.8 0.00 0.03 0.03 51 1031.3
20260510090612 21 251 1.6 4.8 0.00 0.03 0.03 51 1031.3
20260510085525 21 277 0.0 1.6 0.00 0.03 0.03 51 1031.3
20260510084527 21 0.0 0.0 0.00 0.03 0.03 51 1031.2
20260510083521 21 277 0.0 1.6 0.00 0.03 0.03 51 1031.1
20260510082519 21 0.0 0.0 0.00 0.03 0.03 51 1031.0
20260510081517 21 277 0.0 1.6 0.00 0.03 0.03 51 1030.9
20260510080535 21 274 0.0 1.6 0.00 0.03 0.03 52 1031.0
20260510075533 21 278 1.6 3.2 0.00 0.03 0.03 52 1030.7
20260510074531 21 278 0.0 3.2 0.00 0.03 0.03 52 1030.7
20260510073530 21 278 0.0 1.6 0.00 0.03 0.03 52 1030.6
20260510072528 21 278 0.0 1.6 0.00 0.03 0.03 52 1030.6
20260510071526 21 274 1.6 4.8 0.00 0.03 0.03 52 1030.6
20260510070524 21 275 1.6 4.8 0.00 0.03 0.03 52 1030.6
20260510065527 21 281 1.6 4.8 0.00 0.03 0.03 53 1030.5
20260510064520 21 279 3.2 11.3 0.00 0.03 0.03 53 1030.4
20260510063543 21 254 3.2 12.9 0.00 0.03 0.03 53 1030.3
20260510062517 21 252 3.2 12.9 0.00 0.03 0.03 53 1030.3
20260510061535 21 265 4.8 9.7 0.00 0.03 0.03 53 1030.3
20260510060533 21 282 4.8 14.5 0.00 0.03 0.03 53 1030.2
20260510055531 21 275 3.2 11.3 0.00 0.03 0.03 53 1030.1
20260510054530 21 277 3.2 14.5 0.00 0.03 0.03 53 1030.2
20260510053553 21 274 4.8 12.9 0.00 0.03 0.03 54 1030.0
20260510052526 21 272 3.2 11.3 0.00 0.03 0.03 54 1029.9
20260510051524 21 278 4.8 11.3 0.00 0.03 0.03 54 1030.0
20260510050522 21 258 4.8 14.5 0.00 0.03 0.03 54 1029.9
20260510045520 21 261 4.8 16.1 0.00 0.03 0.03 54 1030.0
20260510044539 21 255 4.8 9.7 0.00 0.03 0.03 54 1029.8
20260510043517 21 284 4.8 11.3 0.00 0.03 0.03 55 1029.8
20260510042600 21 268 3.2 9.7 0.00 0.03 0.03 55 1029.8
20260510041559 21 267 3.2 9.7 0.00 0.03 0.03 55 1029.8
20260510040536 21 275 3.2 11.3 0.00 0.03 0.03 55 1029.9
20260510035530 21 230 1.6 4.8 0.00 0.03 0.03 55 1030.0
20260510034528 20 259 4.8 11.3 0.00 0.03 0.03 55 1029.9
20260510033546 20 284 3.2 11.3 0.00 0.03 0.03 55 1030.0
20260510032524 20 281 4.8 14.5 0.00 0.03 0.03 55 1030.1
20260510031522 20 275 4.8 14.5 0.00 0.03 0.03 55 1030.1
20260510030520 20 229 4.8 9.7 0.00 0.03 0.03 55 1030.2
20260510025523 20 257 4.8 9.7 0.00 0.03 0.03 55 1030.4
20260510024517 20 266 6.4 12.9 0.00 0.03 0.03 55 1030.5
20260510023535 20 256 3.2 9.7 0.00 0.03 0.03 56 1030.7
20260510022533 20 265 4.8 9.7 0.00 0.03 0.03 56 1030.7
20260510021618 20 252 3.2 9.7 0.00 0.03 0.03 56 1030.8
20260510020529 20 264 4.8 9.7 0.00 0.03 0.03 56 1031.1
20260510015548 20 249 4.8 12.9 0.00 0.03 0.03 56 1031.2
20260510014546 20 254 3.2 9.7 0.00 0.03 0.03 56 1031.3
20260510013524 20 227 4.8 11.3 0.00 0.03 0.03 56 1031.2
20260510012527 20 263 4.8 12.9 0.00 0.03 0.03 56 1031.5
20260510011520 20 258 1.6 9.7 0.00 0.03 0.03 57 1031.5
20260510010518 20 261 3.2 12.9 0.00 0.03 0.03 57 1031.5
20260510005537 20 285 4.8 22.5 0.00 0.03 0.03 57 1031.5
20260510004535 20 260 4.8 9.7 0.00 0.03 0.03 57 1031.4
20260510003558 20 234 3.2 9.7 0.00 0.03 0.03 57 1031.4
20260510002531 20 272 3.2 9.7 0.00 0.03 0.03 57 1031.5
20260510001534 19 249 4.8 14.5 0.00 0.03 0.03 57 1031.5
20260510000554 19 262 4.8 11.3 0.00 0.03 0.03 57 1031.4
20260509235526 19 264 3.2 6.4 0.00 0.03 0.03 58 1031.5
20260509234549 19 264 3.2 9.7 0.00 0.03 0.03 58 1031.5
20260509233547 19 236 3.2 9.7 0.00 0.03 0.03 58 1031.5
20260509232530 19 267 3.2 9.7 0.00 0.03 0.03 58 1031.4
20260509231518 18 273 4.8 9.7 0.00 0.03 0.03 58 1031.4
20260509230517 18 262 3.2 9.7 0.00 0.03 0.03 58 1031.3
20260509225620 18 268 1.6 4.8 0.00 0.03 0.03 58 1031.3
20260509224558 18 265 3.2 11.3 0.00 0.03 0.03 58 1031.1
20260509223531 18 258 3.2 9.7 0.00 0.03 0.03 59 1031.2
20260509222550 18 266 3.2 9.7 0.00 0.03 0.03 59 1031.0
20260509221527 18 266 1.6 4.8 0.00 0.03 0.03 59 1030.9
20260509220546 18 269 3.2 6.4 0.00 0.03 0.03 59 1030.8
20260509215524 18 273 3.2 4.8 0.00 0.03 0.03 59 1030.6
20260509214522 18 270 3.2 9.7 0.00 0.03 0.03 58 1030.4
20260509213520 18 266 1.6 3.2 0.00 0.03 0.03 58 1030.4
20260509212518 18 265 1.6 4.8 0.00 0.03 0.03 57 1030.3
20260509211516 18 271 3.2 6.4 0.03 0.03 0.03 56 1030.1
20260509210536 18 281 3.2 14.5 0.03 0.03 0.03 55 1030.1
20260509205533 18 280 3.2 9.7 0.03 0.03 0.03 55 1030.0
20260509204551 18 268 1.6 6.4 0.03 0.03 0.03 55 1030.1
20260509203530 18 271 1.6 9.7 0.03 0.03 0.03 55 1029.8
20260509202529 18 271 3.2 6.4 0.03 0.03 0.03 55 1029.8
20260509201525 18 267 1.6 4.8 0.00 0.03 0.00 55 1029.7
20260509200524 18 275 1.6 4.8 0.00 0.03 0.00 55 1029.5
20260509195542 18 0.0 0.0 0.00 0.00 0.00 55 1029.5
20260509194540 18 267 0.0 3.2 0.00 0.00 0.00 55 1029.5
20260509193518 18 266 0.0 3.2 0.00 0.00 0.00 55 1029.4
20260509192538 18 268 1.6 4.8 0.00 0.00 0.00 55 1029.3
20260509191534 18 268 1.6 4.8 0.00 0.00 0.00 55 1029.0
20260509190534 18 270 1.6 4.8 0.00 0.00 0.00 55 1029.0
20260509185531 18 272 1.6 4.8 0.00 0.00 0.00 54 1028.9
20260509184530 18 265 1.6 6.4 0.00 0.00 0.00 54 1028.8
20260509183549 18 270 3.2 11.3 0.00 0.03 0.00 54 1028.7
20260509182527 18 259 0.0 1.6 0.00 0.03 0.00 54 1028.7
20260509181544 18 270 1.6 4.8 0.00 0.03 0.00 54 1028.7
20260509180521 19 264 1.6 4.8 0.00 0.05 0.00 54 1028.6
20260509175520 19 268 1.6 4.8 0.00 0.05 0.00 54 1028.5
20260509174538 19 264 1.6 3.2 0.00 0.05 0.00 54 1028.7
20260509173516 19 265 1.6 4.8 0.00 0.05 0.00 54 1028.6
20260509172536 19 266 1.6 4.8 0.00 0.05 0.00 54 1028.7
20260509171533 19 270 1.6 4.8 0.00 0.05 0.00 54 1028.7
20260509170531 19 275 3.2 9.7 0.00 0.05 0.00 53 1028.7
20260509165529 19 266 1.6 6.4 0.00 0.05 0.00 53 1028.8
20260509164528 20 267 1.6 4.8 0.00 0.05 0.00 53 1028.6
20260509163527 20 272 3.2 6.4 0.00 0.05 0.00 53 1028.7
20260509162523 20 267 1.6 4.8 0.00 0.05 0.00 53 1028.8
20260509161521 20 263 0.0 3.2 0.00 0.05 0.00 53 1028.8
20260509160520 20 264 3.2 4.8 0.00 0.05 0.00 53 1028.8
20260509155539 20 265 1.6 3.2 0.00 0.05 0.00 53 1028.8
20260509154538 20 266 1.6 4.8 0.00 0.05 0.00 52 1028.8
20260509153534 20 268 1.6 4.8 0.00 0.05 0.00 52 1028.9
20260509152532 20 263 1.6 4.8 0.00 0.05 0.00 52 1028.9
20260509151531 20 269 0.0 3.2 0.00 0.05 0.00 52 1028.9
20260509150610 20 270 1.6 4.8 0.00 0.05 0.00 52 1029.0
20260509145527 20 267 1.6 4.8 0.00 0.05 0.00 52 1029.0
20260509144547 20 267 1.6 3.2 0.00 0.05 0.00 52 1028.9
20260509143543 21 268 1.6 4.8 0.00 0.05 0.00 52 1028.8
20260509142523 21 268 1.6 6.4 0.00 0.05 0.00 52 1028.8
20260509141521 21 265 1.6 4.8 0.00 0.05 0.00 52 1028.9
20260509140519 21 261 1.6 3.2 0.00 0.05 0.00 52 1028.9
20260509135516 21 261 0.0 1.6 0.00 0.05 0.05 52 1029.0
20260509134534 21 264 0.0 3.2 0.00 0.05 0.05 52 1029.0
20260509133532 21 257 1.6 3.2 0.00 0.05 0.05 52 1029.0
20260509132530 21 260 1.6 6.4 0.00 0.05 0.05 52 1029.0
20260509131528 21 258 0.0 3.2 0.00 0.05 0.05 52 1029.0
20260509130526 21 256 0.0 1.6 0.00 0.05 0.05 52 1029.1
20260509125525 21 261 1.6 3.2 0.00 0.08 0.05 52 1029.1
20260509124523 21 264 1.6 6.4 0.00 0.08 0.05 52 1029.1
20260509123548 21 261 1.6 4.8 0.00 0.08 0.05 52 1029.1
20260509122519 21 255 0.0 1.6 0.00 0.08 0.05 52 1029.1
20260509121523 21 258 1.6 4.8 0.00 0.10 0.05 52 1029.0
20260509120540 21 255 0.0 1.6 0.00 0.10 0.05 52 1029.0